Flag for Puerto Rico Weather past 2 weeks in San Juan, Puerto Rico

Now
85 °F

Scattered clouds.


Feels Like: 91 °F
Forecast: 79 / 84 °F
Wind: 23 mph from East

Location: Luis Munoz Marin


UV Index: 10 (Very high)

Visibility: 10 mi


Pressure: 30.03 "Hg

Humidity: 65%

Dew point: 72 °F

Location of San JuanLocation

Historic Weather in San Juan

°F

San Juan temperature yesterday

Maximum temperature yesterday: 86 °F (at 12:56 PM)
Minimum temperature yesterday: 76 °F (at 2:56 AM)
Average temperature yesterday: 80 °F

Past Weeks' High & Low Weather Summary

 TemperatureHumidityPressure
High88 °F (Apr 6, 11:56 AM)97% (Apr 18, 2:56 AM)30.14 "Hg (Apr 18, 2:56 AM)
Low75 °F (Apr 12, 3:56 AM)50% (Apr 6, 11:56 AM)29.89 "Hg (Apr 15, 3:56 PM)
Average81 °F69%30.02 "Hg
* Reported Apr 4 12:56 PM — Apr 19 12:56 PM, San Juan, Weather by CustomWeather, © 2014

Note: Actual official high and low records may vary slightly from our data, if they occured in-between our weather recording intervals... More about our weather records

Advertising

Historic Weather Conditions — Data for Previous 24 hours

 ConditionsComfort  
Time TempWeatherWind HumidityBarometerVisibility
12:56 PM
Apr 19
85 °FLight rain. Scattered clouds.18 mph65%30.04 "Hg9 mi
11:56 AM86 °FScattered clouds.20 mph59%30.06 "Hg10 mi
10:56 AM84 °FScattered clouds.20 mph65%30.07 "Hg10 mi
9:56 AM80 °FLight rain. Scattered clouds.10 mph74%30.07 "Hg10 mi
8:56 AM81 °FScattered clouds.17 mph74%30.07 "Hg10 mi
7:56 AM79 °FScattered clouds.9 mph82%30.06 "Hg10 mi
6:56 AM76 °FPassing clouds.6 mph94%30.05 "Hg10 mi
5:56 AM75 °FLight rain. Fog.8 mph94%30.03 "Hg6 mi
4:56 AM75 °FPartly cloudy.5 mph88%30.02 "Hg10 mi
3:56 AM76 °FLight rain. Passing clouds.No wind85%30.01 "Hg10 mi
2:56 AM76 °FPassing clouds.No wind91%30.01 "Hg10 mi
1:56 AM76 °FHeavy rain. Passing clouds.9 mph85%30.02 "Hg6 mi
12:56 AM77 °FPassing clouds.No wind82%30.04 "Hg10 mi
11:56 PM
Apr 18
78 °FPassing clouds.7 mph84%30.05 "Hg10 mi
10:56 PM80 °FPassing clouds.8 mph69%30.06 "Hg10 mi
9:56 PM80 °FPassing clouds.14 mph71%30.06 "Hg10 mi
8:56 PM80 °FPassing clouds.13 mph67%30.05 "Hg10 mi
7:56 PM80 °FPassing clouds.15 mph71%30.03 "Hg10 mi
6:56 PM80 °FScattered clouds.16 mph67%30.02 "Hg10 mi
5:56 PM82 °FScattered clouds.18 mph65%30.01 "Hg10 mi
4:56 PM83 °FScattered clouds.17 mph65%30.01 "Hg10 mi
3:56 PM83 °FScattered clouds.20 mph65%30.01 "Hg10 mi
2:56 PM85 °FScattered clouds.20 mph63%30.02 "Hg10 mi
Weather by CustomWeather, © 2014

See weather overview